Location: La Bouexière
(48.1827°N, 1.4367°W)
Time: 21:12:52
(UTC+00:00)

Daily predictions for brighter satellites

Satellite Brightness Start Highest point End
(mag) Time Altitude Azimuth Time Altitude Azimuth Time Altitude Azimuth
Terra 3.0 20:14:54 10° ESE 20:18:52 28° ENE 20:22:51 10° N
USA 234 4.5 20:13:46 10° ENE 20:19:53 43° N 20:25:58 10° WNW
ERS-1 Rocket 3.8 20:19:44 10° SE 20:24:18 37° ENE 20:28:56 10° N
ATLAS 2AS CENTAUR R/B 2.9 20:17:16 10° SW 20:24:41 89° SE 20:31:51 10° NE
MOS 1 4.4 20:19:19 10° SSE 20:24:58 73° ENE 20:30:38 10° NNW
Cosmos 1782 2.7 20:25:41 10° S 20:29:28 86° ESE 20:33:19 10° N
Cosmos 1943 Rocket 2.7 20:28:35 10° NNW 20:34:11 61° WSW 20:39:43 10° S
USA 281 4.0 20:28:14 10° ESE 20:34:16 40° NE 20:40:19 10° NNW
Cosmos 1420 Rocket 4.3 20:29:57 10° NNW 20:35:13 59° ENE 20:40:27 10° SE
Cosmos 1743 3.8 20:35:29 10° NNE 20:38:35 26° ENE 20:41:25 11° SE
ISS -2.6 20:35:30 10° WNW 20:38:43 43° N 20:41:55 10° ENE
Cosmos 2278 Rocket 3.6 20:33:45 10° NW 20:38:50 35° WSW 20:43:53 10° S
NOSS 3-1 (A) 4.2 20:32:09 10° NW 20:39:25 89° WSW 20:48:11 10° SE
Cosmos 972 4.3 20:34:57 10° S 20:39:47 68° ESE 20:44:43 10° NNE
USA 245 3.1 20:42:39 14° SE 20:44:12 27° ENE 20:46:12 10° N
Cosmos 2297 4.1 20:40:34 10° NNW 20:46:13 54° ENE 20:51:24 12° SE
Cosmos 2112 Rocket 4.2 20:44:06 10° S 20:49:14 51° ESE 20:54:21 10° NNE
USA 290 2.2 20:47:31 10° NNW 20:50:45 88° WSW 20:53:34 13° SSE
Okean-O 3.2 20:47:19 10° S 20:51:39 56° W 20:56:01 10° NNW
Cosmos 1766 Rocket 4.0 20:47:30 10° N 20:51:48 46° ENE 20:55:32 13° SSE
USA 229 DEB 4.4 20:47:03 10° NW 20:54:14 57° NE 21:01:46 11° ESE
USA 229 4.4 20:47:08 10° NW 20:54:19 57° NE 21:01:53 11° ESE
Cosmos-2242 4.2 20:51:31 10° SSW 20:55:33 44° WNW 20:59:38 10° N
Cosmos 2034 Rocket 4.0 20:49:53 10° N 20:56:08 88° W 21:02:24 10° S
Cosmos 1726 3.7 20:55:03 10° NNE 20:57:03 16° ENE 20:58:35 12° ESE
Spot 2 Rocket 3.7 20:54:06 12° SE 20:58:34 56° ENE 21:03:29 10° N
Cosmos 1680 Rocket 3.5 20:54:10 10° SSW 20:59:25 72° ESE 21:04:41 10° NNE
USA 32 4.2 21:01:12 10° SSE 21:06:17 56° E 21:11:24 10° NNE
Cosmos 1933 4.4 21:04:29 10° SSW 21:08:16 46° WNW 21:12:07 10° N
Tsikada Rocket 4.0 21:02:30 10° S 21:08:38 72° E 21:14:52 10° NNE
CZ-4C R/B 4.2 21:07:30 10° N 21:11:04 49° WNW 21:14:47 10° SSW
USA 276 1.3 21:11:49 10° WNW 21:14:01 71° NNE 21:15:14 23° E
SL-16 R/B 2.2 21:09:06 10° SSW 21:14:45 80° ESE 21:20:28 10° NNE
MOS 1 Rocket 3.7 21:13:56 17° SSE 21:17:47 62° ENE 21:22:59 10° N
Cosmos 2056 Rocket 3.7 21:13:44 10° NNW 21:19:10 77° WSW 21:23:28 16° SSE
Lacrosse 5 2.4 21:14:39 10° WNW 21:19:35 49° SW 21:23:08 18° SSE
Cosmos 1536 4.0 21:16:59 10° NNE 21:20:21 27° ENE 21:22:15 19° ESE
Lacrosse 5 rocket 1.7 21:16:14 10° WSW 21:20:31 71° NNW 21:24:44 10° NE
Ariane Rocket 3.0 21:16:49 16° SSE 21:20:58 84° ENE 21:26:04 10° NNW
Cosmos 1624 Rocket 4.1 21:16:18 10° NNW 21:21:29 74° WSW 21:25:35 16° SSE
Cosmos 1452 Rocket 4.3 21:18:16 10° N 21:23:13 40° ENE 21:26:45 17° ESE
Cosmos 44 3.3 21:18:47 10° NW 21:23:38 69° WSW 21:26:45 20° SSE
Spot 1 4.4 21:21:23 10° NNE 21:25:16 41° E 21:27:36 21° SSE
Cosmos 2221 2.7 21:23:06 10° SSW 21:27:24 75° W 21:31:45 10° N
Cosmos 2369 Rocket 2.2 21:22:50 10° NNW 21:28:28 82° ENE 21:32:23 20° SSE
Cosmos 2084 3.1 21:28:07 10° NW 21:31:54 74° SW 21:33:53 26° SSE
Resurs 01 Rocket 4.5 21:30:29 10° WSW 21:31:59 11° W 21:33:30 10° WNW
FALCON 9 R/B 4.1 21:28:20 10° SW 21:34:12 36° S 21:51:17 10° ESE
USA 306 4.0 21:37:26 10° WNW 21:41:02 38° NNE 21:44:41 10° E
Cosmos 2237 Rocket 4.5 21:37:22 10° WSW 21:42:11 27° NW 21:47:02 10° NNE
Cosmos 921 Rocket 3.1 21:37:53 10° SSW 21:42:21 88° WNW 21:46:53 10° NNE
Okean 3 Rocket 3.5 21:41:07 10° N 21:45:33 90° ESE 21:48:06 25° S
SPOT 5 4.5 21:42:20 10° SSW 21:46:19 27° W 21:50:10 10° NW
GEOS 3 Rocket 3.6 21:42:02 10° NE 21:47:16 88° NW 21:52:23 10° SW
ATLAS 3B R/B 3.7 21:44:05 10° NW 21:51:25 44° WSW 21:57:02 17° S
Landsat 5 3.1 21:49:12 10° NNE 21:52:59 74° ESE 21:54:55 27° S
Aureole 3 Rocket 4.4 21:50:03 10° NNW 21:53:22 33° W 21:57:20 11° SSW
SL-8 R/B 4.1 21:49:04 10° SW 21:53:26 38° SSE 21:57:50 10° E
Cosmos 1500 Rocket 3.9 21:51:58 10° N 21:56:12 50° ENE 21:57:58 30° SE
Terra 2.8 21:52:39 14° SSW 21:56:18 40° W 22:00:46 10° NNW
Cosmos 1943 3.3 21:53:56 18° S 21:58:07 58° ESE 22:03:41 10° NE
Cosmos 1733 3.9 21:56:03 10° N 21:59:18 34° ENE 22:00:07 30° ESE
USA 234 4.3 21:56:00 10° E 22:02:09 45° NNE 22:08:18 10° WNW
Cosmos 1048 Rocket 3.9 21:59:00 20° S 22:02:38 70° ESE 22:07:44 10° NNE
ERS-1 Rocket 4.3 21:58:51 11° SSW 22:03:06 32° W 22:07:37 10° NNW
H-2A R/B 4.0 22:02:30 19° E 22:04:10 25° ENE 22:07:37 10° N
Cosmos 1842 Rocket 3.8 22:01:41 19° SSW 22:04:50 72° W 22:09:17 10° N
Cosmos 1805 Rocket 3.9 22:00:50 10° N 22:05:08 52° ENE 22:06:48 33° SE
Cosmos 1656 Rocket 4.4 22:00:18 10° NW 22:05:24 42° WSW 22:08:45 20° SSW
Cosmos 494 Rocket 4.0 22:00:56 11° SSW 22:05:49 83° WNW 22:10:58 10° NNE
Meteor 1-10 Rocket 4.2 22:02:23 21° S 22:06:24 80° E 22:12:06 10° NNE
Lacrosse 4 Rocket 3.9 22:04:49 10° N 22:06:53 13° NE 22:08:56 10° ENE
SPOT 3 Rocket 4.4 22:04:43 17° SSW 22:08:21 44° W 22:13:16 10° NNW
Cosmos 1151 Rocket 3.9 22:08:37 29° ESE 22:09:39 33° E 22:13:34 10° NNE
Meteor 2-9 Rocket 4.3 22:06:03 10° N 22:11:52 73° ENE 22:14:55 29° SSE
Meteor 1-11 Rocket 3.7 22:09:29 10° NNW 22:15:07 85° W 22:18:13 29° S
ISS -3.8 22:12:16 10° WNW 22:15:37 78° NNE 22:16:32 44° E
Meteor 2-10 4.1 22:11:24 10° N 22:17:03 77° ENE 22:19:41 32° SSE
Meteor 1-19 Rocket 4.4 22:14:06 28° SSE 22:17:15 63° E 22:22:59 10° NNE
ARIANE 5 R/B 3.0 22:16:04 33° SE 22:17:40 51° ENE 22:21:52 10° N
Cosmos 1340 Rocket 3.3 22:17:22 39° SE 22:18:06 44° E 22:21:56 10° NNE
USA 281 3.7 22:14:24 22° S 22:18:37 52° WSW 22:25:03 10° NNW
USA 59 Rocket 1.5 22:16:27 10° NNW 22:19:45 29° NE 22:22:59 14° E
Cosmos 1331 Rocket 4.0 22:15:35 10° NNW 22:20:52 83° WSW 22:23:13 34° SSE
BREEZE-M DEB (TANK) 4.2 22:18:25 10° WSW 22:22:14 89° S 22:38:43 10° E
MINOTAUR 4 R/B 4.3 22:19:53 10° NNE 22:22:21 39° ENE 22:22:21 39° ENE
Cosmos 1110 Rocket 4.1 22:17:27 10° NNW 22:22:47 74° WSW 22:25:12 33° S
CZ-2C R/B 3.8 22:21:37 10° NNE 22:26:06 54° E 22:27:22 40° SSE
Cosmos 1726 3.2 22:27:35 10° NNW 22:30:21 29° W 22:31:07 25° WSW
Nadezhda 4 Rocket 3.9 22:30:39 29° S 22:34:01 81° E 22:40:16 10° N
Molniya-1 4.3 22:35:27 32° SSW 22:37:23 67° ESE 22:47:28 10° NE
Cosmos 1805 3.3 22:35:59 10° N 22:39:39 56° ENE 22:40:09 50° ESE
IRIDIUM 106 4.4 22:37:40 10° N 22:42:53 67° E 22:44:46 39° SSE
USA 229 4.5 22:38:14 10° NW 22:45:21 47° WSW 22:49:19 27° S
Cosmos 1743 Rocket 3.7 22:42:14 10° NNW 22:46:35 65° W 22:47:56 41° SSW
Sich 1 3.5 22:47:00 10° NNW 22:51:15 53° W 22:52:35 37° SSW
Cosmos 1536 4.4 22:53:02 10° NNW 22:56:16 25° W 22:57:32 21° WSW
Cosmos 1975 2.7 22:52:39 10° N 22:56:37 69° E 22:57:09 59° SE
Lacrosse 5 rocket 3.6 22:55:45 10° WNW 22:59:26 28° NNW 23:03:03 10° NE
SL-16 R/B 4.5 22:55:04 10° W 22:59:33 23° NW 23:04:03 10° N
Cosmos 1603 3.8 22:57:30 23° SW 23:01:10 76° WNW 23:06:55 10° NNE
Cosmos 1340 2.9 22:58:50 10° NNW 23:02:07 47° W 23:02:14 47° WSW
Cosmos 1626 2.7 23:04:41 38° ENE 23:04:41 38° ENE 23:07:14 10° NNE
Cosmos 1674 4.5 23:07:50 18° ENE 23:07:50 18° ENE 23:09:52 10° NE
PSLV R/B 4.0 23:03:23 10° N 23:07:27 72° WNW 23:08:26 49° SW
NOSS 2-1 (C) 3.7 23:03:48 10° NW 23:07:33 67° NE 23:09:08 39° ESE
Meteor 1-27 Rocket 4.2 23:04:40 23° SW 23:07:54 53° WNW 23:13:19 10° N
Cosmos 1627 Rocket 4.5 23:05:12 37° S 23:07:56 77° E 23:14:16 10° NNE
USA 267 3.4 23:01:46 10° ENE 23:08:05 50° SE 23:10:42 33° S
Cosmos 2369 Rocket 4.1 23:08:15 10° WNW 23:11:45 17° W 23:14:10 13° SW
USA 306 2.4 23:11:10 10° WNW 23:15:05 86° SSW 23:15:15 81° SSE
Cosmos 2026 Rocket 4.0 23:12:23 37° S 23:15:08 87° E 23:21:28 10° N
Cosmos 1833 Rocket 4.0 23:17:10 22° ESE 23:17:48 22° E 23:22:02 10° NE
NOSS 3-3 (C) 4.4 23:26:06 35° SE 23:26:45 36° ESE 23:32:19 10° NE
Cosmos 220 Rocket 3.8 23:30:05 65° SSE 23:30:36 76° ESE 23:34:56 10° NNE
Cosmos 1515 Rocket 3.9 23:31:37 45° ESE 23:32:02 47° E 23:36:12 10° NNE
Cosmos 1328 Rocket 3.5 23:33:10 59° SSW 23:33:56 79° W 23:38:17 10° N
SL-8 R/B 3.5 23:30:49 10° WSW 23:35:35 84° SSE 23:40:23 10° E
Meteor 1-18 Rocket 4.3 23:33:57 39° SSW 23:36:16 82° WNW 23:42:15 10° N
ALOS 2 2.5 23:36:13 61° S 23:36:55 77° WSW 23:41:20 10° NNW
Cosmos 1553 Rocket 3.9 23:31:18 10° N 23:37:25 80° E 23:39:39 42° SSE
Spot 4 4.1 23:37:28 46° SW 23:38:27 55° W 23:43:09 10° NNW
H-2A R/B 3.3 23:38:30 34° WSW 23:38:57 36° W 23:42:50 10° NNW
Cosmos 1470 Rocket 3.5 23:36:35 10° N 23:41:05 89° WSW 23:41:47 64° S
USA 234 3.3 23:38:50 13° ESE 23:44:46 81° NNE 23:51:20 10° NW
Meteor 2-4 Rocket 4.2 23:42:30 32° SW 23:45:08 60° WNW 23:51:01 10° N
Lacrosse 4 Rocket 1.4 23:41:50 10° NNW 23:45:54 71° ENE 23:46:28 60° ESE
Cosmos 1666 Rocket 4.4 23:46:51 10° NNW 23:50:50 36° W 23:51:27 35° WSW
ISS -0.9 23:49:16 10° W 23:49:19 10° W 23:49:19 10° W
Cosmos 1633 Rocket 3.7 23:50:20 10° NNW 23:54:29 41° W 23:55:08 39° WSW
